TimeEST,TemperatureF,Dew PointF,Humidity,Sea Level PressureIn,VisibilityMPH,Wind Direction,Wind SpeedMPH,Gust SpeedMPH,PrecipitationIn,Events,Conditions,WindDirDegrees,DateUTC
12:53 AM,9.0,5.0,84,29.87,10.0,SW,3.5,-,N/A,,Mostly Cloudy,220,2013-01-04 05:53:00
1:53 AM,10.0,6.1,84,29.87,10.0,Calm,Calm,-,0.00,,Overcast,0,2013-01-04 06:53:00
2:19 AM,10.4,6.8,85,29.86,10.0,Calm,Calm,-,N/A,,Overcast,0,2013-01-04 07:19:00
2:46 AM,10.4,6.8,85,29.85,10.0,Calm,Calm,-,N/A,,Overcast,0,2013-01-04 07:46:00
2:53 AM,10.9,8.1,88,29.88,10.0,Calm,Calm,-,N/A,,Overcast,0,2013-01-04 07:53:00
3:53 AM,12.9,9.0,84,29.86,10.0,Calm,Calm,-,N/A,,Overcast,0,2013-01-04 08:53:00
4:53 AM,15.1,10.9,84,29.85,10.0,Calm,Calm,-,N/A,,Overcast,0,2013-01-04 09:53:00
5:53 AM,16.0,12.9,88,29.84,10.0,SSE,3.5,-,N/A,,Overcast,160,2013-01-04 10:53:00
7:53 AM,26.1,19.9,78,29.81,10.0,SSE,4.6,-,N/A,,Overcast,150,2013-01-04 12:53:00
8:53 AM,32.0,21.9,66,29.78,9.0,SSW,8.1,19.6,0.00,Snow,Light Snow,210,2013-01-04 13:53:00
9:53 AM,33.1,24.1,70,29.76,10.0,South,10.4,18.4,0.00,,Overcast,180,2013-01-04 14:53:00
10:53 AM,34.0,21.9,61,29.78,10.0,SW,8.1,24.2,N/A,,Overcast,230,2013-01-04 15:53:00
11:53 AM,34.0,23.0,64,29.75,8.0,WSW,17.3,26.5,N/A,,Overcast,250,2013-01-04 16:53:00
12:35 PM,33.8,26.6,75,29.72,4.0,WSW,10.4,18.4,0.00,Snow,Light Snow,240,2013-01-04 17:35:00
12:53 PM,35.1,26.1,70,29.73,5.0,WSW,10.4,19.6,0.00,Snow,Light Snow,240,2013-01-04 17:53:00
1:53 PM,35.1,26.1,70,29.72,7.0,SW,12.7,24.2,0.12,Snow,Light Snow,230,2013-01-04 18:53:00
2:53 PM,35.1,25.0,67,29.74,10.0,WSW,8.1,17.3,0.06,,Overcast,250,2013-01-04 19:53:00
3:53 PM,34.0,25.0,70,29.75,10.0,Variable,3.5,-,0.03,,Overcast,0,2013-01-04 20:53:00
4:53 PM,35.1,23.0,61,29.76,10.0,SW,5.8,-,0.01,,Overcast,230,2013-01-04 21:53:00
5:53 PM,34.0,24.1,67,29.76,10.0,WSW,6.9,-,N/A,,Overcast,250,2013-01-04 22:53:00
6:53 PM,34.0,24.1,67,29.78,10.0,Variable,6.9,-,0.01,Snow,Light Snow,0,2013-01-04 23:53:00
7:53 PM,33.1,25.0,72,29.78,10.0,West,6.9,-,0.00,,Overcast,260,2013-01-05 00:53:00
9:53 PM,33.1,23.0,66,29.76,10.0,SW,9.2,-,0.00,,Overcast,230,2013-01-05 02:53:00
10:53 PM,33.1,23.0,66,29.76,10.0,WSW,8.1,19.6,N/A,,Overcast,240,2013-01-05 03:53:00